This is the latest recevied weather packets stored in our database for station/object K9ZOG. If no packets are shown the sender has not sent any weather packets the latest 10 day(s).
| Time | Temp. | Humidity | Pressure | Rain* | Wind** | Luminosity | Snow |
|---|---|---|---|---|---|---|---|
| 1777737853 | 8.33° C | 52% | 1019.3 hPa | 0 mm | - | 857 W/m² | - |
| 1777737552 | 8.33° C | 55% | 1019.4 hPa | 0 mm | - | 890 W/m² | - |
| 1777737253 | 8.33° C | 52% | 1019.3 hPa | 0 mm | - | 862 W/m² | - |
| 1777736952 | 8.33° C | 52% | 1019.3 hPa | 0 mm | - | 851 W/m² | - |
| 1777736653 | 8.33° C | 52% | 1019.3 hPa | 0 mm | - | 869 W/m² | - |
| 1777736353 | 8.33° C | 56% | 1019.4 hPa | 0 mm | - | 847 W/m² | - |
| 1777736056 | 7.78° C | 56% | 1019.3 hPa | 0 mm | - | 444 W/m² | - |
| 1777735756 | 7.78° C | 55% | 1019.3 hPa | 0 mm | - | 823 W/m² | - |
| 1777735454 | 7.78° C | 54% | 1019.3 hPa | 0 mm | - | 811 W/m² | - |
| 1777735153 | 7.78° C | 54% | 1019.3 hPa | 0 mm | - | 839 W/m² | - |
| 1777734853 | 7.78° C | 53% | 1019.4 hPa | 0 mm | - | 802 W/m² | - |
| 1777734552 | 7.78° C | 52% | 1019.3 hPa | 0 mm | - | 784 W/m² | - |
| 1777734252 | 7.78° C | 55% | 1019.2 hPa | 0 mm | - | 762 W/m² | - |
| 1777733953 | 7.78° C | 55% | 1019.2 hPa | 0 mm | - | 743 W/m² | - |
| 1777733652 | 7.22° C | 55% | 1019.2 hPa | 0 mm | - | 577 W/m² | - |
| 1777733352 | 7.22° C | 56% | 1019.2 hPa | 0 mm | - | 700 W/m² | - |
| 1777733053 | 7.22° C | 59% | 1019.2 hPa | 0 mm | - | 614 W/m² | - |
| 1777732753 | 7.22° C | 59% | 1019.3 hPa | 0 mm | - | 165 W/m² | - |
| 1777732453 | 7.22° C | 57% | 1019.2 hPa | 0 mm | - | 289 W/m² | - |
| 1777732152 | 6.67° C | 56% | 1019.2 hPa | 0 mm | - | 462 W/m² | - |
| 1777731853 | 6.67° C | 56% | 1019.2 hPa | 0 mm | - | 416 W/m² | - |
| 1777731553 | 6.67° C | 57% | 1019.2 hPa | 0 mm | - | 239 W/m² | - |
| 1777731252 | 6.67° C | 57% | 1019.3 hPa | 0 mm | - | 266 W/m² | - |
| 1777730953 | 6.67° C | 56% | 1019.3 hPa | 0 mm | - | 403 W/m² | - |
| 1777730653 | 6.67° C | 56% | 1019.2 hPa | 0 mm | - | 290 W/m² | - |
* Rain latest hour (hover to see other rain measurements)
** Current wind speed in m/s (hover to see current wind gust speed)